Time,TemperatureF,DewpointF,PressureIn,WindDirection,WindDirectionDegrees,WindSpeedMPH,WindSpeedGustMPH,Humidity,HourlyPrecipIn,Conditions,Clouds,dailyrainin,SoftwareType,DateUTC
2013-09-12 00:01:00,79.0,71.2,29.98,ESE,119,0.0,0.0,77,0.00,,---,0.00,VWS V13.01,2013-09-12 04:01:00,
2013-09-12 00:02:00,79.0,71.2,29.98,ESE,117,0.0,0.0,77,0.00,,---,0.00,VWS V13.01,2013-09-12 04:02:00,
2013-09-12 00:03:00,79.0,71.2,29.98,ESE,117,0.0,0.0,77,0.00,,---,0.00,VWS V13.01,2013-09-12 04:03:00,
2013-09-12 00:04:00,79.0,71.2,29.98,ESE,117,0.0,0.0,77,0.00,,---,0.00,VWS V13.01,2013-09-12 04:04:00,
2013-09-12 00:09:00,79.0,71.2,29.98,ESE,117,0.0,0.0,77,0.00,,---,0.00,VWS V13.01,2013-09-12 04:09:00,
2013-09-12 00:15:00,78.9,71.5,29.97,ESE,117,0.0,0.0,78,0.00,,---,0.00,VWS V13.01,2013-09-12 04:15:00,
2013-09-12 00:20:00,78.8,71.4,29.97,ESE,117,0.0,0.0,78,0.00,,---,0.00,VWS V13.01,2013-09-12 04:20:00,
2013-09-12 00:25:00,78.8,71.4,29.97,ESE,116,0.0,0.0,78,0.00,,---,0.00,VWS V13.01,2013-09-12 04:25:00,
2013-09-12 00:30:00,78.7,71.3,29.97,ESE,116,0.0,0.0,78,0.00,,---,0.00,VWS V13.01,2013-09-12 04:30:00,
2013-09-12 00:35:00,78.7,71.6,29.96,ESE,115,0.0,0.0,79,0.00,,---,0.00,VWS V13.01,2013-09-12 04:35:00,
2013-09-12 00:40:00,78.7,71.6,29.96,ESE,115,0.0,0.0,79,0.00,,---,0.00,VWS V13.01,2013-09-12 04:40:00,
2013-09-12 00:45:00,78.7,71.6,29.96,ESE,113,0.0,0.0,79,0.00,,---,0.00,VWS V13.01,2013-09-12 04:45:00,
2013-09-12 00:50:00,78.7,71.6,29.96,ESE,113,0.0,0.0,79,0.00,,---,0.00,VWS V13.01,2013-09-12 04:50:00,
2013-09-12 00:55:00,78.6,71.9,29.96,ESE,113,0.0,0.0,80,0.00,,---,0.00,VWS V13.01,2013-09-12 04:55:00,
2013-09-12 01:00:00,78.5,71.8,29.96,ESE,113,0.0,0.0,80,0.00,,---,0.00,VWS V13.01,2013-09-12 05:00:00,
2013-09-12 01:06:00,78.5,71.8,29.96,ESE,113,0.0,0.0,80,0.00,,---,0.00,VWS V13.01,2013-09-12 05:06:00,
2013-09-12 01:11:00,78.4,72.1,29.96,ESE,113,0.0,0.0,81,0.00,,---,0.00,VWS V13.01,2013-09-12 05:11:00,
2013-09-12 01:16:00,78.4,72.1,29.96,ESE,111,0.0,0.0,81,0.00,,---,0.00,VWS V13.01,2013-09-12 05:16:00,
2013-09-12 01:21:00,78.5,72.2,29.96,ESE,111,0.0,0.0,81,0.00,,---,0.00,VWS V13.01,2013-09-12 05:21:00,
2013-09-12 01:26:00,78.5,72.2,29.96,ESE,111,0.0,0.0,81,0.00,,---,0.00,VWS V13.01,2013-09-12 05:26:00,
2013-09-12 01:31:00,78.6,72.3,29.96,ESE,111,0.0,0.0,81,0.00,,---,0.00,VWS V13.01,2013-09-12 05:31:00,
2013-09-12 01:36:00,78.7,72.4,29.96,ESE,111,0.0,0.0,81,0.00,,---,0.00,VWS V13.01,2013-09-12 05:36:00,
2013-09-12 01:41:00,78.8,72.5,29.96,East,89,0.0,0.0,81,0.00,,---,0.00,VWS V13.01,2013-09-12 05:41:00,
2013-09-12 01:46:00,78.9,72.6,29.96,East,94,0.0,0.0,81,0.00,,---,0.00,VWS V13.01,2013-09-12 05:46:00,
2013-09-12 01:51:00,79.0,72.7,29.95,East,94,0.0,0.0,81,0.00,,---,0.00,VWS V13.01,2013-09-12 05:51:00,
2013-09-12 01:56:00,78.9,72.6,29.95,East,95,0.0,0.0,81,0.00,,---,0.00,VWS V13.01,2013-09-12 05:56:00,
2013-09-12 02:02:00,78.9,72.6,29.95,East,95,0.0,0.0,81,0.00,,---,0.00,VWS V13.01,2013-09-12 06:02:00,
2013-09-12 02:07:00,78.9,72.6,29.95,East,92,0.0,0.0,81,0.00,,---,0.00,VWS V13.01,2013-09-12 06:07:00,
2013-09-12 02:12:00,78.8,72.5,29.95,ESE,109,0.0,0.0,81,0.00,,---,0.00,VWS V13.01,2013-09-12 06:12:00,
2013-09-12 02:17:00,78.8,72.8,29.95,ESE,109,0.0,0.0,82,0.00,,---,0.00,VWS V13.01,2013-09-12 06:17:00,
2013-09-12 02:22:00,78.8,72.8,29.95,ESE,105,0.0,0.0,82,0.00,,---,0.00,VWS V13.01,2013-09-12 06:22:00,
2013-09-12 02:27:00,78.8,72.8,29.96,East,93,0.0,0.0,82,0.00,,---,0.00,VWS V13.01,2013-09-12 06:27:00,
2013-09-12 02:32:00,78.8,72.8,29.96,East,101,0.0,0.0,82,0.00,,---,0.00,VWS V13.01,2013-09-12 06:32:00,
2013-09-12 02:37:00,78.8,72.8,29.96,ESE,120,0.0,0.0,82,0.00,,---,0.00,VWS V13.01,2013-09-12 06:37:00,
2013-09-12 02:42:00,78.8,72.8,29.96,ESE,119,0.0,0.0,82,0.00,,---,0.00,VWS V13.01,2013-09-12 06:42:00,
2013-09-12 02:47:00,78.7,72.8,29.95,ESE,117,0.0,0.0,82,0.00,,---,0.00,VWS V13.01,2013-09-12 06:47:00,
2013-09-12 02:52:00,78.7,72.8,29.95,ESE,111,0.0,0.0,82,0.00,,---,0.00,VWS V13.01,2013-09-12 06:52:00,
2013-09-12 02:57:00,78.7,73.1,29.95,ESE,111,0.0,0.0,83,0.00,,---,0.00,VWS V13.01,2013-09-12 06:57:00,
2013-09-12 03:02:00,78.6,73.0,29.95,ESE,111,0.0,0.0,83,0.00,,---,0.00,VWS V13.01,2013-09-12 07:02:00,
2013-09-12 03:08:00,78.5,72.9,29.95,ESE,111,0.0,0.0,83,0.00,,---,0.00,VWS V13.01,2013-09-12 07:08:00,
2013-09-12 03:13:00,78.4,72.8,29.95,ESE,111,0.0,0.0,83,0.00,,---,0.00,VWS V13.01,2013-09-12 07:13:00,
2013-09-12 03:18:00,78.3,72.7,29.95,ESE,111,0.0,0.0,83,0.00,,---,0.00,VWS V13.01,2013-09-12 07:18:00,
2013-09-12 03:23:00,78.3,72.7,29.95,ESE,109,0.0,0.0,83,0.00,,---,0.00,VWS V13.01,2013-09-12 07:23:00,
2013-09-12 03:28:00,78.2,73.0,29.94,ESE,110,0.0,0.0,84,0.00,,---,0.00,VWS V13.01,2013-09-12 07:28:00,
2013-09-12 03:33:00,78.1,72.9,29.94,ESE,110,0.0,0.0,84,0.00,,---,0.00,VWS V13.01,2013-09-12 07:33:00,
2013-09-12 03:38:00,78.0,72.8,29.94,ESE,110,0.0,0.0,84,0.00,,---,0.00,VWS V13.01,2013-09-12 07:38:00,
2013-09-12 03:43:00,78.0,72.8,29.94,East,91,0.0,0.0,84,0.00,,---,0.00,VWS V13.01,2013-09-12 07:43:00,
2013-09-12 03:48:00,77.9,72.7,29.94,East,82,0.0,0.0,84,0.00,,---,0.00,VWS V13.01,2013-09-12 07:48:00,
2013-09-12 03:53:00,78.0,72.8,29.94,East,85,0.0,0.0,84,0.00,,---,0.00,VWS V13.01,2013-09-12 07:53:00,
2013-09-12 03:58:00,78.0,72.8,29.94,East,85,0.0,0.0,84,0.00,,---,0.00,VWS V13.01,2013-09-12 07:58:00,
2013-09-12 04:03:00,78.0,72.8,29.93,East,86,0.0,0.0,84,0.00,,---,0.00,VWS V13.01,2013-09-12 08:03:00,
2013-09-12 04:08:00,78.0,72.8,29.93,East,86,0.0,0.0,84,0.00,,---,0.00,VWS V13.01,2013-09-12 08:08:00,
2013-09-12 04:14:00,77.9,72.7,29.93,East,86,0.0,0.0,84,0.00,,---,0.00,VWS V13.01,2013-09-12 08:14:00,
2013-09-12 04:19:00,77.9,72.7,29.93,East,86,0.0,0.0,84,0.00,,---,0.00,VWS V13.01,2013-09-12 08:19:00,
2013-09-12 04:24:00,77.8,72.6,29.93,East,86,0.0,0.0,84,0.00,,---,0.00,VWS V13.01,2013-09-12 08:24:00,
2013-09-12 04:29:00,77.7,72.5,29.93,East,86,0.0,0.0,84,0.00,,---,0.00,VWS V13.01,2013-09-12 08:29:00,
2013-09-12 04:34:00,77.6,72.7,29.93,East,86,0.0,0.0,85,0.00,,---,0.00,VWS V13.01,2013-09-12 08:34:00,
2013-09-12 04:39:00,77.5,72.6,29.93,East,86,0.0,0.0,85,0.00,,---,0.00,VWS V13.01,2013-09-12 08:39:00,
2013-09-12 04:44:00,77.4,72.5,29.93,East,86,0.0,0.0,85,0.00,,---,0.00,VWS V13.01,2013-09-12 08:44:00,
2013-09-12 04:49:00,77.3,72.4,29.93,East,86,0.0,0.0,85,0.00,,---,0.00,VWS V13.01,2013-09-12 08:49:00,
2013-09-12 04:54:00,77.1,72.6,29.93,East,86,0.0,0.0,86,0.00,,---,0.00,VWS V13.01,2013-09-12 08:54:00,
2013-09-12 04:59:00,77.1,72.6,29.93,East,86,0.0,0.0,86,0.00,,---,0.00,VWS V13.01,2013-09-12 08:59:00,
2013-09-12 05:04:00,77.0,72.5,29.93,East,86,0.0,0.0,86,0.00,,---,0.00,VWS V13.01,2013-09-12 09:04:00,
2013-09-12 05:09:00,76.9,72.4,29.93,East,86,0.0,0.0,86,0.00,,---,0.00,VWS V13.01,2013-09-12 09:09:00,
2013-09-12 05:14:00,76.8,72.6,29.92,East,86,0.0,0.0,87,0.00,,---,0.00,VWS V13.01,2013-09-12 09:14:00,
2013-09-12 05:20:00,76.8,72.6,29.93,East,86,0.0,0.0,87,0.00,,---,0.00,VWS V13.01,2013-09-12 09:20:00,
2013-09-12 05:25:00,76.7,72.5,29.93,East,86,0.0,0.0,87,0.00,,---,0.00,VWS V13.01,2013-09-12 09:25:00,
2013-09-12 05:30:00,76.6,72.4,29.93,East,86,0.0,0.0,87,0.00,,---,0.00,VWS V13.01,2013-09-12 09:30:00,
2013-09-12 05:35:00,76.5,72.3,29.93,East,86,0.0,0.0,87,0.00,,---,0.00,VWS V13.01,2013-09-12 09:35:00,
2013-09-12 05:40:00,76.4,72.2,29.93,East,86,0.0,0.0,87,0.00,,---,0.00,VWS V13.01,2013-09-12 09:40:00,
2013-09-12 05:45:00,76.4,72.2,29.93,East,86,0.0,0.0,87,0.00,,---,0.00,VWS V13.01,2013-09-12 09:45:00,
2013-09-12 05:50:00,76.4,72.2,29.93,East,86,0.0,0.0,87,0.00,,---,0.00,VWS V13.01,2013-09-12 09:50:00,
2013-09-12 05:55:00,76.3,72.5,29.93,East,86,0.0,0.0,88,0.00,,---,0.00,VWS V13.01,2013-09-12 09:55:00,
2013-09-12 06:00:00,76.2,72.1,29.94,East,86,0.0,0.0,87,0.00,,---,0.00,VWS V13.01,2013-09-12 10:00:00,
2013-09-12 06:05:00,76.2,72.4,29.94,East,86,0.0,0.0,88,0.00,,---,0.00,VWS V13.01,2013-09-12 10:05:00,
2013-09-12 06:10:00,76.2,72.4,29.94,East,86,0.0,0.0,88,0.00,,---,0.00,VWS V13.01,2013-09-12 10:10:00,
2013-09-12 06:15:00,76.2,72.4,29.94,East,86,0.0,0.0,88,0.00,,---,0.00,VWS V13.01,2013-09-12 10:15:00,
2013-09-12 06:20:00,76.2,72.4,29.94,East,86,0.0,0.0,88,0.00,,---,0.00,VWS V13.01,2013-09-12 10:20:00,
2013-09-12 06:25:00,76.2,72.4,29.94,East,86,0.0,0.0,88,0.00,,---,0.00,VWS V13.01,2013-09-12 10:25:00,
2013-09-12 06:30:00,76.1,72.3,29.95,East,86,0.0,0.0,88,0.00,,---,0.00,VWS V13.01,2013-09-12 10:30:00,
2013-09-12 06:36:00,76.1,72.3,29.95,East,86,0.0,0.0,88,0.00,,---,0.00,VWS V13.01,2013-09-12 10:36:00,
2013-09-12 06:41:00,76.2,72.4,29.95,East,86,0.0,0.0,88,0.00,,---,0.00,VWS V13.01,2013-09-12 10:41:00,
2013-09-12 06:46:00,76.1,72.3,29.95,East,86,0.0,0.0,88,0.00,,---,0.00,VWS V13.01,2013-09-12 10:46:00,
2013-09-12 06:51:00,76.1,72.3,29.95,East,86,0.0,0.0,88,0.00,,---,0.00,VWS V13.01,2013-09-12 10:51:00,
2013-09-12 06:56:00,76.0,72.2,29.95,East,86,0.0,0.0,88,0.00,,---,0.00,VWS V13.01,2013-09-12 10:56:00,
2013-09-12 07:01:00,76.0,72.2,29.94,East,86,0.0,0.0,88,0.00,,---,0.00,VWS V13.01,2013-09-12 11:01:00,
2013-09-12 07:06:00,76.0,72.2,29.95,East,86,0.0,0.0,88,0.00,,---,0.00,VWS V13.01,2013-09-12 11:06:00,
2013-09-12 07:11:00,76.0,72.5,29.95,East,86,0.0,0.0,89,0.00,,---,0.00,VWS V13.01,2013-09-12 11:11:00,
2013-09-12 07:16:00,76.0,72.5,29.95,East,86,0.0,0.0,89,0.00,,---,0.00,VWS V13.01,2013-09-12 11:16:00,
2013-09-12 07:21:00,76.0,72.5,29.95,East,86,0.0,0.0,89,0.00,,---,0.00,VWS V13.01,2013-09-12 11:21:00,
2013-09-12 07:26:00,75.9,72.4,29.95,East,86,0.0,0.0,89,0.00,,---,0.00,VWS V13.01,2013-09-12 11:26:00,
2013-09-12 07:31:00,75.9,72.4,29.95,East,86,0.0,0.0,89,0.00,,---,0.00,VWS V13.01,2013-09-12 11:31:00,
2013-09-12 07:36:00,75.9,72.4,29.95,East,86,0.0,0.0,89,0.00,,---,0.00,VWS V13.01,2013-09-12 11:36:00,
2013-09-12 07:42:00,76.0,72.5,29.96,East,86,0.0,0.0,89,0.00,,---,0.00,VWS V13.01,2013-09-12 11:42:00,
2013-09-12 07:47:00,76.1,72.6,29.96,East,86,0.0,0.0,89,0.00,,---,0.00,VWS V13.01,2013-09-12 11:47:00,
2013-09-12 07:52:00,76.2,72.7,29.96,East,86,0.0,0.0,89,0.00,,---,0.00,VWS V13.01,2013-09-12 11:52:00,
2013-09-12 07:57:00,76.4,72.9,29.96,East,86,0.0,0.0,89,0.00,,---,0.00,VWS V13.01,2013-09-12 11:57:00,
2013-09-12 08:02:00,76.7,73.2,29.96,East,85,0.0,0.0,89,0.00,,---,0.00,VWS V13.01,2013-09-12 12:02:00,
2013-09-12 08:07:00,77.0,73.5,29.96,East,88,0.0,0.0,89,0.00,,---,0.00,VWS V13.01,2013-09-12 12:07:00,
2013-09-12 08:12:00,77.3,73.8,29.96,East,88,0.0,0.0,89,0.00,,---,0.00,VWS V13.01,2013-09-12 12:12:00,
2013-09-12 08:17:00,77.6,74.1,29.96,ENE,75,0.0,0.0,89,0.00,,---,0.00,VWS V13.01,2013-09-12 12:17:00,
2013-09-12 08:22:00,77.9,74.1,29.96,East,88,0.0,0.0,88,0.00,,---,0.00,VWS V13.01,2013-09-12 12:22:00,
2013-09-12 08:27:00,78.3,74.5,29.96,East,99,0.0,0.0,88,0.00,,---,0.00,VWS V13.01,2013-09-12 12:27:00,
2013-09-12 08:32:00,78.6,74.8,29.96,ESE,102,0.0,0.0,88,0.00,,---,0.00,VWS V13.01,2013-09-12 12:32:00,
2013-09-12 08:37:00,78.9,74.7,29.96,East,92,0.0,0.0,87,0.00,,---,0.00,VWS V13.01,2013-09-12 12:37:00,
2013-09-12 08:42:00,79.1,74.9,29.97,ENE,74,0.0,0.0,87,0.00,,---,0.00,VWS V13.01,2013-09-12 12:42:00,
2013-09-12 08:47:00,79.3,75.1,29.96,East,97,0.0,2.0,87,0.00,,---,0.00,VWS V13.01,2013-09-12 12:47:00,
2013-09-12 08:53:00,79.6,75.1,29.96,ENE,70,0.0,2.0,86,0.00,,---,0.00,VWS V13.01,2013-09-12 12:53:00,
2013-09-12 08:58:00,79.8,75.2,29.96,ENE,57,0.0,2.0,86,0.00,,---,0.00,VWS V13.01,2013-09-12 12:58:00,
2013-09-12 09:03:00,80.2,75.3,29.96,ESE,105,0.0,0.0,85,0.00,,---,0.00,VWS V13.01,2013-09-12 13:03:00,
2013-09-12 09:08:00,80.9,75.6,29.96,ESE,113,0.0,0.0,84,0.00,,---,0.00,VWS V13.01,2013-09-12 13:08:00,
2013-09-12 09:13:00,81.5,76.2,29.96,ESE,107,0.0,0.0,84,0.00,,---,0.00,VWS V13.01,2013-09-12 13:13:00,
2013-09-12 09:18:00,82.0,76.3,29.96,ENE,78,0.0,0.0,83,0.00,,---,0.00,VWS V13.01,2013-09-12 13:18:00,
2013-09-12 09:23:00,82.4,76.4,29.96,East,90,0.0,0.0,82,0.00,,---,0.00,VWS V13.01,2013-09-12 13:23:00,
2013-09-12 09:28:00,83.0,76.6,29.96,East,89,0.0,0.0,81,0.00,,---,0.00,VWS V13.01,2013-09-12 13:28:00,
2013-09-12 09:33:00,83.2,76.4,29.97,ESE,102,0.0,0.0,80,0.00,,---,0.00,VWS V13.01,2013-09-12 13:33:00,
2013-09-12 09:38:00,83.1,75.9,29.97,East,96,0.0,0.0,79,0.00,,---,0.00,VWS V13.01,2013-09-12 13:38:00,
2013-09-12 09:43:00,83.7,76.5,29.97,East,86,0.0,0.0,79,0.00,,---,0.00,VWS V13.01,2013-09-12 13:43:00,
2013-09-12 09:48:00,84.1,76.5,29.97,SE,125,0.0,0.0,78,0.00,,---,0.00,VWS V13.01,2013-09-12 13:48:00,
2013-09-12 09:53:00,84.1,76.1,29.97,ESE,119,0.0,0.0,77,0.00,,---,0.00,VWS V13.01,2013-09-12 13:53:00,
2013-09-12 09:59:00,83.9,75.9,29.96,ESE,113,0.0,0.0,77,0.00,,---,0.00,VWS V13.01,2013-09-12 13:59:00,
2013-09-12 10:04:00,83.6,75.6,29.96,SE,128,0.0,0.0,77,0.00,,---,0.00,VWS V13.01,2013-09-12 14:04:00,
2013-09-12 10:09:00,83.4,75.4,29.96,SE,125,0.0,0.0,77,0.00,,---,0.00,VWS V13.01,2013-09-12 14:09:00,
2013-09-12 10:14:00,83.4,75.8,29.96,SE,124,0.0,0.0,78,0.00,,---,0.00,VWS V13.01,2013-09-12 14:14:00,
2013-09-12 10:19:00,83.4,75.4,29.96,SE,130,0.0,0.0,77,0.00,,---,0.00,VWS V13.01,2013-09-12 14:19:00,
2013-09-12 10:24:00,83.5,75.5,29.97,East,97,0.0,0.0,77,0.00,,---,0.00,VWS V13.01,2013-09-12 14:24:00,
2013-09-12 10:29:00,83.6,75.6,29.96,ESE,109,0.0,0.0,77,0.00,,---,0.00,VWS V13.01,2013-09-12 14:29:00,
2013-09-12 10:34:00,83.6,75.6,29.96,SE,141,0.0,0.0,77,0.00,,---,0.00,VWS V13.01,2013-09-12 14:34:00,
2013-09-12 10:39:00,83.7,75.7,29.96,ESE,121,0.0,0.0,77,0.00,,---,0.00,VWS V13.01,2013-09-12 14:39:00,
2013-09-12 10:44:00,83.7,75.3,29.96,SE,130,0.0,0.0,76,0.00,,---,0.00,VWS V13.01,2013-09-12 14:44:00,
2013-09-12 10:49:00,83.8,75.4,29.96,SE,125,0.0,0.0,76,0.00,,---,0.00,VWS V13.01,2013-09-12 14:49:00,
2013-09-12 10:54:00,84.0,75.6,29.96,SE,133,0.0,0.0,76,0.00,,---,0.00,VWS V13.01,2013-09-12 14:54:00,
2013-09-12 10:59:00,84.1,75.3,29.96,SE,128,0.0,0.0,75,0.00,,---,0.00,VWS V13.01,2013-09-12 14:59:00,
2013-09-12 11:04:00,84.2,75.4,29.96,SE,143,0.0,0.0,75,0.00,,---,0.00,VWS V13.01,2013-09-12 15:04:00,
2013-09-12 11:10:00,84.2,75.8,29.96,SE,143,0.0,0.0,76,0.00,,---,0.00,VWS V13.01,2013-09-12 15:10:00,
2013-09-12 11:15:00,84.2,75.8,29.96,SSE,161,0.0,0.0,76,0.00,,---,0.00,VWS V13.01,2013-09-12 15:15:00,
2013-09-12 11:20:00,84.1,75.3,29.96,SSE,148,0.0,0.0,75,0.00,,---,0.00,VWS V13.01,2013-09-12 15:20:00,
2013-09-12 11:25:00,84.2,75.8,29.96,SE,128,0.0,0.0,76,0.00,,---,0.00,VWS V13.01,2013-09-12 15:25:00,
2013-09-12 11:30:00,84.4,75.6,29.96,SSE,147,0.0,0.0,75,0.00,,---,0.00,VWS V13.01,2013-09-12 15:30:00,
2013-09-12 11:35:00,84.4,76.0,29.96,SSE,153,0.0,0.0,76,0.00,,---,0.00,VWS V13.01,2013-09-12 15:35:00,
2013-09-12 11:40:00,84.8,76.8,29.96,SSE,152,0.0,0.0,77,0.00,,---,0.00,VWS V13.01,2013-09-12 15:40:00,
2013-09-12 11:45:00,85.1,75.9,29.96,SSE,151,0.0,0.0,74,0.00,,---,0.00,VWS V13.01,2013-09-12 15:45:00,
2013-09-12 11:50:00,85.9,76.2,29.96,East,94,0.0,1.0,73,0.00,,---,0.00,VWS V13.01,2013-09-12 15:50:00,
2013-09-12 11:55:00,86.2,75.3,29.96,SSE,161,0.0,1.0,70,0.00,,---,0.00,VWS V13.01,2013-09-12 15:55:00,
2013-09-12 12:00:00,86.2,75.3,29.96,SSE,164,0.0,0.0,70,0.00,,---,0.00,VWS V13.01,2013-09-12 16:00:00,
2013-09-12 12:05:00,85.8,74.9,29.96,SSE,165,0.0,0.0,70,0.00,,---,0.00,VWS V13.01,2013-09-12 16:05:00,
2013-09-12 12:10:00,85.6,74.3,29.96,SE,131,0.0,0.0,69,0.00,,---,0.00,VWS V13.01,2013-09-12 16:10:00,
2013-09-12 12:15:00,85.8,74.9,29.96,SE,127,0.0,0.0,70,0.00,,---,0.00,VWS V13.01,2013-09-12 16:15:00,
2013-09-12 12:21:00,85.7,74.4,29.96,ESE,123,0.0,0.0,69,0.00,,---,0.00,VWS V13.01,2013-09-12 16:21:00,
2013-09-12 12:26:00,86.1,75.6,29.96,ESE,115,0.0,0.0,71,0.00,,---,0.00,VWS V13.01,2013-09-12 16:26:00,
2013-09-12 12:31:00,87.0,75.6,29.95,East,101,0.0,0.0,69,0.00,,---,0.00,VWS V13.01,2013-09-12 16:31:00,
2013-09-12 12:36:00,87.4,75.6,29.95,ESE,117,0.0,0.0,68,0.00,,---,0.00,VWS V13.01,2013-09-12 16:36:00,
2013-09-12 12:41:00,88.1,75.8,29.95,East,91,0.0,0.0,67,0.00,,---,0.00,VWS V13.01,2013-09-12 16:41:00,
2013-09-12 12:46:00,88.6,75.8,29.95,East,93,0.0,0.0,66,0.00,,---,0.00,VWS V13.01,2013-09-12 16:46:00,
2013-09-12 12:51:00,88.8,75.5,29.95,ENE,67,0.0,0.0,65,0.00,,---,0.00,VWS V13.01,2013-09-12 16:51:00,
2013-09-12 12:56:00,88.8,74.6,29.94,ENE,71,0.0,0.0,63,0.00,,---,0.00,VWS V13.01,2013-09-12 16:56:00,
2013-09-12 13:01:00,88.8,75.1,29.94,ENE,70,0.0,0.0,64,0.00,,---,0.00,VWS V13.01,2013-09-12 17:01:00,
2013-09-12 13:06:00,89.2,75.0,29.94,ENE,72,0.0,0.0,63,0.00,,---,0.00,VWS V13.01,2013-09-12 17:06:00,
2013-09-12 13:11:00,89.6,73.9,29.93,ENE,71,0.0,0.0,60,0.00,,---,0.00,VWS V13.01,2013-09-12 17:11:00,
2013-09-12 13:16:00,89.8,73.6,29.93,ENE,78,0.0,0.0,59,0.00,,---,0.00,VWS V13.01,2013-09-12 17:16:00,
2013-09-12 13:21:00,89.9,74.2,29.93,ENE,78,0.0,0.0,60,0.00,,---,0.00,VWS V13.01,2013-09-12 17:21:00,
2013-09-12 13:26:00,89.9,74.2,29.93,East,98,0.0,0.0,60,0.00,,---,0.00,VWS V13.01,2013-09-12 17:26:00,
2013-09-12 13:32:00,90.4,74.6,29.93,SSE,152,0.0,0.0,60,0.00,,---,0.00,VWS V13.01,2013-09-12 17:32:00,
2013-09-12 13:37:00,90.4,76.1,29.93,SSW,213,0.0,0.0,63,0.00,,---,0.00,VWS V13.01,2013-09-12 17:37:00,
2013-09-12 13:42:00,90.0,75.7,29.92,SSW,207,0.0,0.0,63,0.00,,---,0.00,VWS V13.01,2013-09-12 17:42:00,
2013-09-12 13:47:00,89.9,75.6,29.92,SSE,159,0.0,0.0,63,0.00,,---,0.00,VWS V13.01,2013-09-12 17:47:00,
2013-09-12 13:52:00,89.7,75.4,29.92,South,182,0.0,0.0,63,0.00,,---,0.00,VWS V13.01,2013-09-12 17:52:00,
2013-09-12 13:57:00,89.7,75.0,29.92,SE,145,0.0,0.0,62,0.00,,---,0.00,VWS V13.01,2013-09-12 17:57:00,
2013-09-12 14:02:00,89.9,74.7,29.91,WSW,254,0.0,0.0,61,0.00,,---,0.00,VWS V13.01,2013-09-12 18:02:00,
2013-09-12 14:07:00,90.1,75.3,29.91,SSE,152,0.0,0.0,62,0.00,,---,0.00,VWS V13.01,2013-09-12 18:07:00,
2013-09-12 14:12:00,90.1,75.8,29.91,South,173,0.0,1.0,63,0.00,,---,0.00,VWS V13.01,2013-09-12 18:12:00,
2013-09-12 14:17:00,90.1,75.3,29.91,South,178,0.0,1.0,62,0.00,,---,0.00,VWS V13.01,2013-09-12 18:17:00,
2013-09-12 14:22:00,89.9,75.1,29.91,SSE,161,0.0,1.0,62,0.00,,---,0.00,VWS V13.01,2013-09-12 18:22:00,
2013-09-12 14:27:00,89.5,74.3,29.91,West,270,0.0,1.0,61,0.00,,---,0.00,VWS V13.01,2013-09-12 18:27:00,
2013-09-12 14:33:00,89.5,75.2,29.91,SSE,160,0.0,0.0,63,0.00,,---,0.00,VWS V13.01,2013-09-12 18:33:00,
2013-09-12 14:38:00,89.8,75.5,29.91,SSW,192,0.0,0.0,63,0.00,,---,0.00,VWS V13.01,2013-09-12 18:38:00,
2013-09-12 14:43:00,90.3,75.5,29.91,West,267,0.0,0.0,62,0.00,,---,0.00,VWS V13.01,2013-09-12 18:43:00,
2013-09-12 14:48:00,90.4,74.6,29.90,WNW,292,5.0,9.0,60,0.00,,---,0.00,VWS V13.01,2013-09-12 18:48:00,
2013-09-12 14:53:00,89.2,74.5,29.90,West,262,0.0,9.0,62,0.00,,---,0.00,VWS V13.01,2013-09-12 18:53:00,
2013-09-12 14:58:00,88.8,74.6,29.90,West,281,0.0,9.0,63,0.00,,---,0.00,VWS V13.01,2013-09-12 18:58:00,
2013-09-12 15:03:00,89.0,74.8,29.90,NW,308,0.0,5.0,63,0.00,,---,0.00,VWS V13.01,2013-09-12 19:03:00,
2013-09-12 15:08:00,89.3,75.1,29.89,WNW,292,0.0,5.0,63,0.00,,---,0.00,VWS V13.01,2013-09-12 19:08:00,
2013-09-12 15:13:00,88.8,74.6,29.89,WNW,297,0.0,9.0,63,0.00,,---,0.00,VWS V13.01,2013-09-12 19:13:00,
2013-09-12 15:18:00,88.5,74.3,29.89,West,276,0.0,9.0,63,0.00,,---,0.00,VWS V13.01,2013-09-12 19:18:00,
2013-09-12 15:23:00,88.3,74.6,29.89,WNW,284,0.0,10.0,64,0.00,,---,0.00,VWS V13.01,2013-09-12 19:23:00,
2013-09-12 15:28:00,88.1,75.8,29.89,West,269,0.0,10.0,67,0.00,,---,0.00,VWS V13.01,2013-09-12 19:28:00,
2013-09-12 15:33:00,88.0,76.1,29.89,West,280,0.0,0.0,68,0.00,,---,0.00,VWS V13.01,2013-09-12 19:33:00,
2013-09-12 15:38:00,88.3,76.4,29.88,North,355,0.0,5.0,68,0.00,,---,0.00,VWS V13.01,2013-09-12 19:38:00,
2013-09-12 15:44:00,89.1,76.3,29.89,North,360,0.0,5.0,66,0.00,,---,0.00,VWS V13.01,2013-09-12 19:44:00,
2013-09-12 15:49:00,88.7,76.3,29.89,NE,36,0.0,5.0,67,0.00,,---,0.00,VWS V13.01,2013-09-12 19:49:00,
2013-09-12 15:54:00,88.2,75.9,29.88,SE,129,0.0,5.0,67,0.00,,---,0.00,VWS V13.01,2013-09-12 19:54:00,
2013-09-12 15:59:00,87.2,75.4,29.88,ESE,122,0.0,5.0,68,0.00,,---,0.00,VWS V13.01,2013-09-12 19:59:00,
2013-09-12 16:04:00,86.6,75.7,29.88,ESE,107,0.0,0.0,70,0.00,,---,0.00,VWS V13.01,2013-09-12 20:04:00,
2013-09-12 16:09:00,86.5,75.1,29.88,SE,134,0.0,0.0,69,0.00,,---,0.00,VWS V13.01,2013-09-12 20:09:00,
2013-09-12 16:14:00,86.3,74.9,29.87,ESE,116,0.0,0.0,69,0.00,,---,0.00,VWS V13.01,2013-09-12 20:14:00,
2013-09-12 16:19:00,85.8,74.9,29.87,ENE,57,0.0,0.0,70,0.00,,---,0.00,VWS V13.01,2013-09-12 20:19:00,
2013-09-12 16:24:00,85.1,74.6,29.87,ENE,59,0.0,0.0,71,0.00,,---,0.00,VWS V13.01,2013-09-12 20:24:00,
2013-09-12 16:29:00,84.7,74.3,29.86,ESE,105,0.0,0.0,71,0.00,,---,0.00,VWS V13.01,2013-09-12 20:29:00,
2013-09-12 16:34:00,84.8,74.8,29.86,ESE,105,0.0,0.0,72,0.00,,---,0.00,VWS V13.01,2013-09-12 20:34:00,
2013-09-12 16:39:00,85.0,75.0,29.86,ESE,104,0.0,0.0,72,0.00,,---,0.00,VWS V13.01,2013-09-12 20:39:00,
2013-09-12 16:45:00,85.0,75.0,29.86,ESE,104,0.0,0.0,72,0.00,,---,0.00,VWS V13.01,2013-09-12 20:45:00,
2013-09-12 16:50:00,85.0,75.0,29.86,NNE,29,0.0,0.0,72,0.00,,---,0.00,VWS V13.01,2013-09-12 20:50:00,
2013-09-12 16:55:00,85.4,76.2,29.86,North,9,0.0,0.0,74,0.00,,---,0.00,VWS V13.01,2013-09-12 20:55:00,
2013-09-12 17:00:00,85.9,76.2,29.85,North,10,0.0,0.0,73,0.00,,---,0.00,VWS V13.01,2013-09-12 21:00:00,
2013-09-12 17:05:00,86.7,77.0,29.85,North,11,0.0,0.0,73,0.00,,---,0.00,VWS V13.01,2013-09-12 21:05:00,
2013-09-12 17:10:00,87.0,75.6,29.85,North,9,0.0,0.0,69,0.00,,---,0.00,VWS V13.01,2013-09-12 21:10:00,
2013-09-12 17:15:00,87.4,76.0,29.85,WNW,299,0.0,1.0,69,0.00,,---,0.00,VWS V13.01,2013-09-12 21:15:00,
2013-09-12 17:20:00,87.5,75.6,29.85,WNW,300,0.0,1.0,68,0.00,,---,0.00,VWS V13.01,2013-09-12 21:20:00,
2013-09-12 17:25:00,87.6,76.2,29.85,NW,311,0.0,1.0,69,0.00,,---,0.00,VWS V13.01,2013-09-12 21:25:00,
2013-09-12 17:30:00,87.8,76.8,29.85,NNW,328,0.0,1.0,70,0.00,,---,0.00,VWS V13.01,2013-09-12 21:30:00,
2013-09-12 17:35:00,87.9,76.0,29.85,West,267,0.0,0.0,68,0.00,,---,0.00,VWS V13.01,2013-09-12 21:35:00,
2013-09-12 17:40:00,88.0,75.7,29.85,NNW,329,0.0,0.0,67,0.00,,---,0.00,VWS V13.01,2013-09-12 21:40:00,
2013-09-12 17:45:00,87.9,76.5,29.85,North,355,2.0,6.0,69,0.00,,---,0.00,VWS V13.01,2013-09-12 21:45:00,
2013-09-12 17:50:00,87.7,76.3,29.84,WNW,301,0.0,6.0,69,0.00,,---,0.00,VWS V13.01,2013-09-12 21:50:00,
2013-09-12 17:56:00,87.8,76.8,29.84,WSW,244,0.0,6.0,70,0.00,,---,0.00,VWS V13.01,2013-09-12 21:56:00,
2013-09-12 18:01:00,87.5,76.5,29.85,SW,234,0.0,0.0,70,0.00,,---,0.00,VWS V13.01,2013-09-12 22:01:00,
2013-09-12 18:06:00,87.5,75.6,29.84,West,270,0.0,4.0,68,0.00,,---,0.00,VWS V13.01,2013-09-12 22:06:00,
2013-09-12 18:11:00,87.4,75.6,29.85,WNW,286,0.0,9.0,68,0.00,,---,0.00,VWS V13.01,2013-09-12 22:11:00,
2013-09-12 18:16:00,87.4,76.0,29.85,WNW,286,0.0,9.0,69,0.00,,---,0.00,VWS V13.01,2013-09-12 22:16:00,
2013-09-12 18:21:00,87.9,76.5,29.85,WNW,286,0.0,9.0,69,0.00,,---,0.00,VWS V13.01,2013-09-12 22:21:00,
2013-09-12 18:26:00,88.1,75.8,29.85,North,349,0.0,9.0,67,0.00,,---,0.00,VWS V13.01,2013-09-12 22:26:00,
2013-09-12 18:31:00,88.2,75.9,29.86,North,349,0.0,0.0,67,0.00,,---,0.00,VWS V13.01,2013-09-12 22:31:00,
2013-09-12 18:36:00,88.4,76.1,29.86,North,349,0.0,0.0,67,0.00,,---,0.00,VWS V13.01,2013-09-12 22:36:00,
2013-09-12 18:41:00,88.1,76.2,29.86,North,349,0.0,0.0,68,0.00,,---,0.00,VWS V13.01,2013-09-12 22:41:00,
2013-09-12 18:46:00,87.4,76.0,29.86,NNW,344,0.0,0.0,69,0.00,,---,0.00,VWS V13.01,2013-09-12 22:46:00,
2013-09-12 18:51:00,86.7,75.3,29.86,NNW,327,0.0,0.0,69,0.00,,---,0.00,VWS V13.01,2013-09-12 22:51:00,
2013-09-12 18:57:00,86.5,76.0,29.86,NW,320,0.0,0.0,71,0.00,,---,0.00,VWS V13.01,2013-09-12 22:57:00,
2013-09-12 19:02:00,86.1,75.6,29.86,NW,311,0.0,0.0,71,0.00,,---,0.00,VWS V13.01,2013-09-12 23:02:00,
2013-09-12 19:07:00,85.7,75.6,29.86,NW,311,0.0,0.0,72,0.00,,---,0.00,VWS V13.01,2013-09-12 23:07:00,
2013-09-12 19:12:00,85.6,75.5,29.87,NW,309,0.0,0.0,72,0.00,,---,0.00,VWS V13.01,2013-09-12 23:12:00,
2013-09-12 19:17:00,85.2,75.2,29.86,NW,309,0.0,0.0,72,0.00,,---,0.00,VWS V13.01,2013-09-12 23:17:00,
2013-09-12 19:22:00,84.8,74.8,29.87,NW,309,0.0,0.0,72,0.00,,---,0.00,VWS V13.01,2013-09-12 23:22:00,
2013-09-12 19:27:00,84.4,74.8,29.87,NW,309,0.0,0.0,73,0.00,,---,0.00,VWS V13.01,2013-09-12 23:27:00,
2013-09-12 19:32:00,84.1,74.5,29.87,NW,309,0.0,0.0,73,0.00,,---,0.00,VWS V13.01,2013-09-12 23:32:00,
2013-09-12 19:37:00,83.8,74.2,29.87,NW,309,0.0,0.0,73,0.00,,---,0.00,VWS V13.01,2013-09-12 23:37:00,
2013-09-12 19:42:00,83.5,74.3,29.87,NW,309,0.0,0.0,74,0.00,,---,0.00,VWS V13.01,2013-09-12 23:42:00,
2013-09-12 19:47:00,83.3,74.6,29.87,NW,309,0.0,0.0,75,0.00,,---,0.00,VWS V13.01,2013-09-12 23:47:00,
2013-09-12 19:52:00,83.1,74.4,29.88,NW,309,0.0,0.0,75,0.00,,---,0.00,VWS V13.01,2013-09-12 23:52:00,
2013-09-12 19:58:00,83.0,74.3,29.88,NW,309,0.0,0.0,75,0.00,,---,0.00,VWS V13.01,2013-09-12 23:58:00,
2013-09-12 20:03:00,82.9,74.2,29.88,NW,309,0.0,0.0,75,0.00,,---,0.00,VWS V13.01,2013-09-13 00:03:00,
2013-09-12 20:08:00,82.9,74.2,29.88,NW,310,0.0,0.0,75,0.00,,---,0.00,VWS V13.01,2013-09-13 00:08:00,
2013-09-12 20:13:00,82.9,74.2,29.89,ESE,116,0.0,1.0,75,0.00,,---,0.00,VWS V13.01,2013-09-13 00:13:00,
2013-09-12 20:18:00,82.5,73.4,29.89,East,87,0.0,1.0,74,0.00,,---,0.00,VWS V13.01,2013-09-13 00:18:00,
2013-09-12 20:23:00,82.1,73.0,29.90,East,96,0.0,6.0,74,0.00,,---,0.00,VWS V13.01,2013-09-13 00:23:00,
2013-09-12 20:28:00,81.7,72.6,29.90,SE,138,0.0,6.0,74,0.00,,---,0.00,VWS V13.01,2013-09-13 00:28:00,
2013-09-12 20:33:00,81.2,72.5,29.89,ESE,119,0.0,3.0,75,0.00,,---,0.00,VWS V13.01,2013-09-13 00:33:00,
2013-09-12 20:38:00,80.9,72.2,29.89,ESE,115,0.0,3.0,75,0.00,,---,0.00,VWS V13.01,2013-09-13 00:38:00,
2013-09-12 20:43:00,80.7,72.0,29.90,SE,127,0.0,5.0,75,0.00,,---,0.00,VWS V13.01,2013-09-13 00:43:00,
2013-09-12 20:49:00,80.3,71.7,29.89,SSE,155,3.0,11.0,75,0.00,,---,0.00,VWS V13.01,2013-09-13 00:49:00,
2013-09-12 20:54:00,80.0,72.2,29.90,SE,128,0.0,11.0,77,0.00,,---,0.00,VWS V13.01,2013-09-13 00:54:00,
2013-09-12 20:59:00,79.8,72.3,29.90,SSE,147,0.0,12.0,78,0.00,,---,0.00,VWS V13.01,2013-09-13 00:59:00,
2013-09-12 21:04:00,79.6,72.9,29.90,SSE,164,0.0,4.0,80,0.00,,---,0.00,VWS V13.01,2013-09-13 01:04:00,
2013-09-12 21:09:00,79.2,72.5,29.90,SE,145,0.0,5.0,80,0.00,,---,0.00,VWS V13.01,2013-09-13 01:09:00,
2013-09-12 21:14:00,78.8,72.1,29.90,SSE,152,0.0,6.0,80,0.00,,---,0.00,VWS V13.01,2013-09-13 01:14:00,
2013-09-12 21:19:00,78.4,72.1,29.90,SE,130,2.0,6.0,81,0.00,,---,0.00,VWS V13.01,2013-09-13 01:19:00,
2013-09-12 21:24:00,78.2,71.9,29.90,SE,140,0.0,6.0,81,0.00,,---,0.00,VWS V13.01,2013-09-13 01:24:00,
2013-09-12 21:29:00,78.0,72.1,29.90,SE,146,0.0,6.0,82,0.00,,---,0.00,VWS V13.01,2013-09-13 01:29:00,
2013-09-12 21:34:00,77.9,72.0,29.90,SSE,149,0.0,0.0,82,0.00,,---,0.00,VWS V13.01,2013-09-13 01:34:00,
2013-09-12 21:40:00,77.9,72.3,29.90,SSE,149,0.0,0.0,83,0.00,,---,0.00,VWS V13.01,2013-09-13 01:40:00,
2013-09-12 21:45:00,77.9,72.3,29.90,SSE,149,0.0,0.0,83,0.00,,---,0.00,VWS V13.01,2013-09-13 01:45:00,
2013-09-12 21:50:00,77.8,72.2,29.89,SSE,149,0.0,0.0,83,0.00,,---,0.00,VWS V13.01,2013-09-13 01:50:00,
2013-09-12 21:55:00,77.7,72.1,29.89,SSE,149,0.0,0.0,83,0.00,,---,0.00,VWS V13.01,2013-09-13 01:55:00,
2013-09-12 22:00:00,77.6,72.0,29.89,SSE,149,0.0,0.0,83,0.00,,---,0.00,VWS V13.01,2013-09-13 02:00:00,
2013-09-12 22:05:00,77.6,72.4,29.89,SSE,149,0.0,0.0,84,0.00,,---,0.00,VWS V13.01,2013-09-13 02:05:00,
2013-09-12 22:10:00,77.6,72.4,29.89,SSE,149,0.0,0.0,84,0.00,,---,0.00,VWS V13.01,2013-09-13 02:10:00,
2013-09-12 22:15:00,77.5,72.3,29.89,SSE,149,0.0,0.0,84,0.00,,---,0.00,VWS V13.01,2013-09-13 02:15:00,
2013-09-12 22:20:00,77.4,72.2,29.89,SSE,149,0.0,0.0,84,0.00,,---,0.00,VWS V13.01,2013-09-13 02:20:00,
2013-09-12 22:25:00,77.3,72.1,29.89,SSE,149,0.0,0.0,84,0.00,,---,0.00,VWS V13.01,2013-09-13 02:25:00,
2013-09-12 22:30:00,77.2,72.0,29.89,SSE,149,0.0,0.0,84,0.00,,---,0.00,VWS V13.01,2013-09-13 02:30:00,
2013-09-12 22:36:00,77.2,72.3,29.88,SSE,149,0.0,0.0,85,0.00,,---,0.00,VWS V13.01,2013-09-13 02:36:00,
2013-09-12 22:41:00,77.2,72.3,29.88,SE,144,0.0,0.0,85,0.00,,---,0.00,VWS V13.01,2013-09-13 02:41:00,
2013-09-12 22:46:00,77.2,72.3,29.88,SE,144,0.0,0.0,85,0.00,,---,0.00,VWS V13.01,2013-09-13 02:46:00,
2013-09-12 22:51:00,77.2,72.3,29.88,SE,144,0.0,0.0,85,0.00,,---,0.00,VWS V13.01,2013-09-13 02:51:00,
2013-09-12 22:56:00,77.1,72.2,29.88,SE,144,0.0,0.0,85,0.00,,---,0.00,VWS V13.01,2013-09-13 02:56:00,
2013-09-12 23:01:00,77.0,72.2,29.88,SE,144,0.0,0.0,85,0.00,,---,0.00,VWS V13.01,2013-09-13 03:01:00,
2013-09-12 23:06:00,77.0,72.2,29.88,SE,144,0.0,0.0,85,0.00,,---,0.00,VWS V13.01,2013-09-13 03:06:00,
2013-09-12 23:11:00,77.0,72.2,29.88,SE,144,0.0,0.0,85,0.00,,---,0.00,VWS V13.01,2013-09-13 03:11:00,
2013-09-12 23:16:00,77.0,72.5,29.88,SE,144,0.0,0.0,86,0.00,,---,0.00,VWS V13.01,2013-09-13 03:16:00,
2013-09-12 23:21:00,76.9,72.4,29.88,SE,144,0.0,0.0,86,0.00,,---,0.00,VWS V13.01,2013-09-13 03:21:00,
2013-09-12 23:26:00,76.8,72.3,29.88,SE,144,0.0,0.0,86,0.00,,---,0.00,VWS V13.01,2013-09-13 03:26:00,
2013-09-12 23:32:00,76.8,72.3,29.88,SE,144,0.0,0.0,86,0.00,,---,0.00,VWS V13.01,2013-09-13 03:32:00,
2013-09-12 23:37:00,76.7,72.2,29.88,SE,144,0.0,0.0,86,0.00,,---,0.00,VWS V13.01,2013-09-13 03:37:00,
2013-09-12 23:42:00,76.7,72.2,29.87,SE,144,0.0,0.0,86,0.00,,---,0.00,VWS V13.01,2013-09-13 03:42:00,
2013-09-12 23:47:00,76.6,72.1,29.87,SE,144,0.0,0.0,86,0.00,,---,0.00,VWS V13.01,2013-09-13 03:47:00,
2013-09-12 23:52:00,76.5,72.0,29.87,SE,144,0.0,0.0,86,0.00,,---,0.00,VWS V13.01,2013-09-13 03:52:00,
2013-09-12 23:57:00,76.5,72.0,29.87,SE,144,0.0,0.0,86,0.00,,---,0.00,VWS V13.01,2013-09-13 03:57:00,